Location: Peebles
(55.6412°N, 3.1714°W)
Time: 16:00:27
(UTC+01:00)

Cosmos 1766 - Pass Details

Date: 26 September 2021
Orbit: 519 x 543 km, 82.5° (Epoch: 17 October)

Event Time Altitude Azimuth Distance (km) Brightness Sun altitude
Rises 21:03:17 0° 191° (SSW) 2,668 6.7 -17.7°
Reaches altitude 10° 21:05:25 10° 192° (SSW) 1,779 5.8 -17.9°
Maximum altitude 21:09:20 86° 281° (WNW) 538 3.2 -18.4°
Drops below altitude 10° 21:13:15 10° 11° (NNE) 1,780 6.1 -18.9°
Sets 21:15:24 0° 12° (NNE) 2,671 7.0 -19.2°
